INMARSAT 5-F1

Last updated on Sat Oct 05 2024 00:02:39 GMT+0000 (Coordinated Universal Time)

1 39476U 13073A 24278.22549550 .00000035 00000+0 00000+0 0 9994 2 39476 0.0209 148.3112 0000623 79.0863 289.8309 1.00272698 39361
UTC large
Height (km)
Speed (km/s)
/
Latitude / Longitude
Inclination (degrees)
Orbital Period (minutes)
Azimuth
Elevation
Range (km)
Doppler Factor

Next 0 passes for location: London (51.5072 / 0.1276)

Sorry there are no passes over London.